Airfield :
LOGIN :

Register | Disclaimer

   EN    FR    IT 

 










Legend :    VFR   Marginal VFR   IFR   Intensive IFR   Very Intensive IFR
Visi :
Ceiling :
>= 8 km
>= 3000ft
5 to 8 km
1000 to 3000 ft
1500m to 5 km
500 to 1000 ft
800 to 1500m
200 to 500 ft
< 800m
< 200 ft
Symbols :   Thunderstorms  Fog  Heavy snow  Heavy precipitations  Wind > 20 kt
SIGMETs :     Misc.  Thunderstorms  Icing  Turbulence  Mountain Waves  Volcanic Ashes







- Airport Elevation : 1234 ft
- IATA code : LUX


ELLX - Luxembourg Findel

CURRENT METAR :
  • 251420Z VRB04KT 9999 FEW042 24/11 Q1018 NOSIG

EXPIRED METARs :
  • 251350Z VRB03KT 9999 FEW040 24/12 Q1019 NOSIG
  • 251320Z VRB05KT 9999 FEW035 23/13 Q1019 NOSIG
  • 251250Z VRB05KT 9999 FEW030 23/14 Q1019 NOSIG
  • 251220Z 11005KT 040V170 9999 FEW030 22/14 Q1019 NOSIG
  • 251150Z 10006KT 040V150 9999 FEW022 22/15 Q1019 NOSIG
  • 251120Z 11005KT 070V150 9999 FEW015 21/16 Q1019 NOSIG

TAF TAF ELLX
Valid from the 25 at 12:00 until the 26 at 18:00 UTC


251100Z 2512/2618 06005KT 9999 FEW030
PROB30
TEMPO 2515/2521 FEW040TCU
TEMPO 2601/2607 3000 BR
ATIS : +352 4798 27300
Met : +352 4798 27010 / 27050
No reported NOTAMs for that airfield.



MET'MAP, your aeronautical weather chart ! - Copyright ORBIFLY December 2007 - Disclaimer

ORBIFLY MET'MAP TEAM :

Programming & Development : Alexandra Zaïnal
Concept & Development : Baudouin d'Aumeries
Co-Development & Prog : Marc-Olivier Méhu
Technical & hardware support : Manuel Goepfert

Contact : metmap@orbifly.com




SOURCES & CREDITS :

   NOAA